Wind_Speed
21 21 20 20 21 19 21 22 21 20 18 17 16 15 15 13 12 12 12 11 10 10 10 11 11 13 13 13 13 13 12 12 11 11 10 10 10 10 10 11 11 11 11 11 11 11 11 11 11
21 21 21 21 21 21 22 23 23 20 19 19 18 16 15 13 11 11 11 10 9 10 11 11 12 12 13 14 14 13 12 12 12 12 11 11 11 11 10 10 11 11 10 10 10 10 10 10 10
20 21 20 20 21 22 23 23 22 21 19 19 18 17 15 12 11 10 10 10 9 10 11 12 12 12 12 13 13 13 12 12 12 11 11 11 11 11 10 10 11 10 10 10 10 10 10 10 11
19 21 20 21 22 23 23 23 22 21 20 18 18 17 14 12 11 11 10 10 9 10 11 11 12 12 12 12 12 12 12 12 12 11 11 11 11 11 11 11 10 10 10 10 10 10 10 10 10
18 20 20 21 22 22 23 23 23 22 20 18 18 17 14 12 11 11 10 9 9 10 11 11 11 11 12 11 11 11 12 12 12 11 12 12 11 11 10 10 10 9 9 10 10 10 9 9 9
17 19 20 21 22 22 23 23 23 21 20 19 18 17 15 12 12 12 11 10 9 10 11 11 11 11 11 11 11 11 11 11 11 11 11 11 11 11 10 9 9 9 9 9 9 10 9 9 9
16 18 19 20 21 22 23 23 23 22 20 20 18 17 16 14 13 12 11 11 10 10 11 10 11 11 11 11 11 11 11 12 11 11 11 10 10 10 10 9 9 9 9 9 9 9 9 9 9
16 18 19 20 20 21 22 22 22 21 21 20 19 18 16 14 13 12 12 12 11 11 10 10 11 11 10 10 10 10 11 11 11 10 10 10 10 9 10 9 9 9 9 9 9 9 9 8 8
16 17 18 19 20 21 21 22 21 21 20 20 20 19 17 15 13 12 12 12 12 11 10 10 11 11 11 10 10 10 10 10 10 10 10 10 10 10 10 9 9 8 8 8 8 8 7 7 7
14 16 17 19 20 21 21 21 21 20 20 20 20 19 18 16 14 13 13 12 12 12 12 11 11 10 11 11 11 11 10 10 10 9 9 9 10 9 9 9 8 8 7 7 7 7 6 6 6
12 14 16 18 19 20 20 20 20 20 19 19 19 18 18 16 15 14 13 13 12 13 12 11 11 10 10 10 11 10 10 10 9 9 8 8 9 9 9 8 8 7 7 7 7 6 6 5 5
9 11 14 16 17 19 20 19 19 19 19 19 19 18 17 16 15 15 14 13 12 12 12 11 11 10 9 10 10 10 10 10 9 9 8 8 8 8 8 8 8 7 7 7 6 5 4 4 3
6 9 12 14 16 17 18 19 19 19 19 19 19 18 17 16 15 14 14 13 12 12 11 11 10 10 10 10 10 10 9 9 9 8 8 7 7 7 7 7 6 6 5 5 4 3 3 3 3
4 6 9 11 14 15 16 17 17 18 17 18 18 18 18 17 15 15 14 13 12 12 12 11 9 9 9 9 10 9 9 9 8 8 7 7 6 6 6 6 5 5 4 3 3 2 3 2 2
2 3 7 9 10 12 14 15 15 16 16 16 17 18 17 17 15 14 13 13 12 11 11 11 10 9 8 8 9 8 8 8 8 7 7 6 5 5 5 4 4 4 3 3 2 1 1 1 1
0 2 4 7 8 10 11 13 14 15 15 15 16 17 16 16 15 14 14 12 11 10 10 10 10 8 7 7 7 7 6 7 6 6 5 5 5 4 4 3 3 3 3 2 1 1 2 2 2
2 1 3 4 6 8 9 11 12 13 14 14 15 15 16 16 15 14 14 13 11 10 9 8 8 8 7 6 5 5 5 5 4 4 4 4 4 4 3 2 3 3 2 2 2 2 3 3 4
4 2 1 2 4 5 7 9 10 10 12 13 13 14 15 15 15 14 14 13 13 10 8 7 7 6 6 5 4 4 3 3 3 3 2 2 2 2 2 3 3 3 3 3 3 3 4 4 5
7 4 2 0 1 3 5 7 8 9 10 11 13 13 14 14 14 14 13 13 13 11 9 8 6 6 5 5 5 4 3 3 2 2 1 1 1 1 2 2 3 3 4 5 5 6 6 7 7
9 7 5 3 1 1 2 4 6 7 8 10 11 12 13 13 13 13 13 13 12 12 10 9 7 6 5 5 5 4 3 3 2 2 2 2 2 2 3 3 3 4 5 6 7 7 7 8 9
11 9 8 6 4 2 1 2 4 5 7 9 10 10 12 13 13 13 12 12 12 11 11 10 9 8 6 6 5 4 4 3 3 2 2 3 3 3 4 5 6 6 7 7 7 7 8 9 9
12 11 10 9 7 5 3 2 2 3 5 7 8 9 11 11 11 12 11 11 11 11 10 10 9 8 7 7 6 5 4 4 4 3 2 3 3 4 6 7 7 8 8 8 9 9 9 10 10
15 14 13 11 10 8 6 5 3 3 4 6 7 8 10 10 11 10 10 10 11 11 10 9 9 8 7 7 6 6 4 4 4 4 4 4 5 6 7 8 8 8 9 9 10 10 10 10 10
18 16 15 13 12 11 9 7 4 3 4 5 6 7 9 10 11 10 9 10 11 12 10 8 8 8 7 7 7 6 6 5 5 5 5 5 7 7 8 9 9 9 10 10 10 10 10 11 11
21 19 18 16 15 12 10 9 6 5 4 4 5 7 8 10 10 10 9 10 11 11 9 8 7 7 7 7 7 7 7 6 6 6 6 6 7 8 8 9 9 9 10 10 11 11 11 11 11
23 21 20 18 16 14 13 11 8 6 6 5 5 7 7 8 9 9 9 9 10 10 9 8 8 8 8 8 8 8 8 8 7 7 7 7 7 8 8 8 8 9 9 9 9 10 10 11 11
24 24 22 20 19 17 16 13 10 8 6 6 6 7 7 8 8 9 10 9 9 9 9 9 9 8 8 9 9 9 8 8 8 7 7 7 8 8 8 8 8 9 9 8 9 9 10 11 11
26 25 24 22 21 20 19 16 13 10 8 7 6 7 7 7 8 9 10 9 9 9 8 8 9 9 9 9 10 10 9 9 9 8 8 8 8 8 8 7 8 8 8 8 9 10 10 11 11
28 27 26 25 23 22 20 17 14 12 10 8 6 6 7 8 9 9 9 9 9 9 8 8 8 9 9 10 10 10 9 9 9 8 8 8 8 9 8 8 8 8 9 9 10 10 11 11 11
30 28 27 26 24 23 21 18 15 14 12 10 8 8 8 8 8 8 8 9 9 8 8 8 8 9 9 10 10 10 10 9 9 9 9 9 10 10 9 9 9 9 10 10 11 11 12 12 13
Wind_Direction
60 58 57 57 57 56 57 59 57 55 54 54 55 55 55 58 62 64 67 69 72 74 75 76 75 73 73 71 72 74 77 77 78 78 78 83 88 87 88 90 93 95 97 96 93 93 93 93 98
60 58 57 58 58 58 58 59 55 52 50 51 52 52 52 56 61 64 67 71 75 77 77 77 77 73 74 75 72 70 75 76 78 79 79 81 84 86 89 94 94 95 98 98 99 96 95 96 101
59 58 56 58 58 59 59 59 55 51 48 48 51 52 52 55 61 68 70 74 80 80 79 80 79 76 73 75 77 75 76 77 77 78 79 81 82 85 90 94 94 95 96 100 101 100 100 102 105
60 60 57 58 58 60 60 58 55 49 46 47 50 52 54 57 61 69 72 77 82 82 81 79 77 74 72 74 77 76 77 76 76 77 80 82 83 85 86 91 94 96 98 102 105 106 105 106 108
57 60 58 58 58 60 59 57 53 47 44 46 49 52 52 56 61 68 75 78 82 82 85 82 75 72 71 73 78 77 77 76 77 78 78 79 82 84 84 86 90 96 101 103 103 106 109 109 110
55 59 58 58 58 57 57 55 53 48 45 45 48 52 53 55 62 68 73 77 79 79 82 82 78 75 74 74 78 79 80 78 79 81 80 81 83 85 83 85 87 93 99 101 104 106 107 106 109
57 58 58 57 56 56 55 52 51 50 48 46 47 51 55 57 63 67 72 73 74 75 76 77 76 77 76 75 76 78 79 78 80 83 84 85 85 86 85 88 88 90 94 99 103 107 106 106 105
61 59 58 57 54 53 54 53 53 50 48 46 46 50 53 57 60 64 68 69 70 72 73 74 75 78 79 77 77 81 81 80 82 86 85 84 83 85 86 88 89 90 92 96 101 103 104 103 101
62 59 60 58 55 52 53 52 51 50 47 46 46 49 52 55 57 61 64 65 68 69 72 74 76 78 79 80 83 84 84 84 87 89 90 86 85 87 90 91 92 91 93 97 102 104 103 102 102
63 59 59 59 56 53 52 52 50 50 48 46 46 48 50 53 55 60 61 64 66 67 71 76 78 79 81 81 83 84 86 87 87 88 91 91 89 91 92 94 95 93 96 101 104 104 103 103 104
60 58 59 59 56 53 53 51 48 47 46 45 45 46 47 51 54 57 61 64 66 67 69 73 77 77 79 83 84 85 86 86 86 89 92 94 95 95 94 94 94 94 98 101 104 102 100 98 99
57 60 61 59 56 54 51 48 46 47 46 43 43 45 47 50 53 56 60 62 66 66 67 71 73 72 75 82 86 85 86 85 85 88 91 94 96 94 94 94 93 93 96 99 102 99 98 94 95
60 60 60 61 57 54 50 46 46 48 46 43 43 45 47 49 52 54 56 60 66 65 65 67 69 69 72 81 86 86 85 84 84 85 89 90 90 91 95 95 91 90 95 99 98 94 89 75 63
56 59 59 59 54 51 49 44 43 45 47 46 45 44 42 45 49 51 54 59 65 65 63 64 65 68 72 79 82 81 83 83 83 86 89 90 90 88 88 92 93 93 95 97 94 80 63 57 50
67 51 54 55 54 50 49 44 39 42 46 45 45 44 43 44 47 48 50 57 62 60 61 62 65 68 71 74 78 79 79 80 79 81 84 86 87 89 88 83 81 85 84 89 96 65 42 15 1
259 41 48 53 56 54 47 43 39 39 41 42 43 43 42 43 44 46 48 51 54 56 55 58 59 62 66 66 71 76 76 73 73 77 79 80 80 78 77 66 60 66 60 49 23 321 311 305 306
203 115 52 56 60 53 49 42 36 36 37 36 36 38 39 40 41 42 43 46 47 50 51 51 55 58 61 63 66 71 74 70 65 68 76 79 75 66 68 56 43 36 29 15 356 324 303 293 291
193 181 110 79 69 53 48 45 40 38 34 33 33 33 34 36 37 39 37 38 38 44 47 46 49 48 47 50 52 58 70 66 54 56 65 78 64 48 28 28 17 6 359 350 339 328 308 296 293
209 210 199 149 56 47 46 48 44 37 33 31 31 31 31 32 33 35 36 34 33 36 43 41 42 40 35 33 39 42 48 39 24 9 1 346 2 6 6 5 354 343 337 333 324 315 310 302 295
220 223 225 235 250 34 43 46 41 34 30 28 26 26 26 26 28 29 28 29 29 31 38 35 32 29 27 31 28 27 21 13 359 337 334 318 307 302 311 325 324 322 321 317 315 314 312 305 299
223 225 232 239 246 255 314 20 28 26 25 22 22 20 19 20 22 25 26 27 26 26 27 25 24 21 19 15 11 3 6 2 356 341 314 309 307 306 302 303 307 308 309 307 308 310 312 310 306
225 226 229 236 245 249 272 315 359 4 8 12 18 14 10 10 15 19 21 23 19 15 15 15 16 15 13 9 6 2 1 360 354 336 321 309 310 305 305 303 301 300 301 304 305 303 306 305 305
222 225 228 234 243 249 263 277 297 333 1 4 11 11 6 7 10 11 14 16 15 11 7 8 11 12 10 7 6 2 353 351 346 333 323 320 317 311 307 305 303 299 298 301 304 305 303 300 301
220 224 228 233 240 246 259 269 278 311 347 354 359 2 360 4 6 7 9 10 12 9 6 6 7 9 8 4 358 354 351 346 342 331 325 321 315 312 307 305 302 298 299 301 302 302 301 298 297
223 226 230 234 239 246 255 264 274 282 307 336 348 350 352 358 2 1 1 4 6 6 10 14 11 10 7 359 351 347 344 346 340 334 325 317 314 314 310 308 308 307 306 303 301 300 299 299 299
228 230 234 239 242 247 254 262 268 274 289 302 320 337 349 355 355 352 354 355 357 3 5 10 10 8 2 355 347 342 339 337 335 331 327 320 317 316 313 312 315 314 309 306 304 302 302 303 303
228 230 234 237 242 246 253 259 259 269 281 291 304 322 341 348 349 347 347 351 355 356 1 0 359 1 356 353 348 341 337 334 332 328 325 323 317 314 313 312 317 318 315 312 309 306 306 306 307
228 230 233 238 242 247 255 257 257 263 273 285 299 314 327 339 341 342 342 346 348 353 354 358 2 359 355 350 346 338 332 330 328 325 322 319 316 311 310 311 316 320 320 318 313 309 307 308 308
229 231 235 240 245 248 254 257 256 257 262 273 286 304 321 330 330 332 338 340 336 341 344 348 352 356 354 349 344 344 336 329 330 326 324 322 319 315 311 310 314 316 316 314 313 312 310 308 307
228 232 236 241 246 249 253 254 251 253 258 265 277 295 311 322 329 333 335 336 334 337 343 347 350 352 348 345 341 338 336 329 325 323 322 318 316 314 313 313 311 311 313 313 312 312 310 307 306
Height
5894 5892 5891 5890 5888 5886 5884 5883 5881 5880 5880 5879 5878 5877 5877 5876 5877 5879 5876 5874 5874 5874 5873 5872 5871 5871 5870 5870 5870 5869 5870 5870 5870 5871 5871 5871 5871 5872 5872 5873 5873 5873 5874 5875 5875 5875 5875 5875 5876
5897 5895 5895 5893 5890 5888 5887 5884 5883 5883 5882 5880 5879 5878 5878 5878 5877 5877 5876 5876 5876 5875 5874 5873 5873 5873 5872 5872 5871 5871 5871 5871 5871 5872 5873 5873 5873 5874 5874 5875 5875 5876 5876 5877 5877 5877 5878 5878 5878
5900 5899 5898 5896 5893 5890 5889 5887 5886 5885 5884 5882 5881 5880 5880 5880 5879 5878 5878 5878 5878 5877 5876 5875 5875 5875 5874 5874 5873 5873 5873 5873 5873 5874 5875 5875 5875 5876 5876 5877 5877 5878 5878 5879 5879 5880 5880 5881 5881
5903 5902 5901 5899 5895 5893 5891 5889 5888 5887 5886 5885 5883 5883 5882 5881 5881 5880 5880 5879 5879 5879 5878 5877 5876 5876 5876 5876 5875 5875 5875 5876 5876 5876 5877 5877 5877 5878 5879 5879 5880 5880 5881 5881 5881 5882 5883 5883 5884
5906 5905 5903 5901 5898 5896 5894 5892 5890 5890 5889 5887 5886 5885 5884 5883 5882 5881 5881 5881 5881 5880 5879 5879 5878 5878 5877 5877 5877 5877 5877 5878 5878 5878 5879 5879 5879 5880 5880 5881 5882 5882 5883 5883 5884 5884 5885 5885 5886
5909 5907 5906 5903 5901 5899 5897 5894 5893 5892 5891 5890 5889 5887 5886 5885 5884 5883 5883 5883 5882 5881 5881 5880 5880 5879 5879 5879 5879 5879 5879 5880 5880 5880 5880 5881 5881 5882 5882 5883 5884 5884 5884 5885 5885 5886 5887 5887 5888
5911 5909 5907 5905 5904 5902 5900 5897 5896 5895 5894 5893 5891 5890 5888 5887 5886 5886 5885 5885 5884 5883 5882 5882 5881 5881 5881 5881 5881 5881 5881 5881 5882 5882 5882 5883 5883 5884 5884 5885 5885 5886 5886 5887 5887 5888 5888 5889 5890
5912 5912 5909 5908 5906 5905 5903 5901 5899 5898 5897 5896 5894 5892 5891 5890 5889 5888 5887 5886 5885 5885 5884 5883 5883 5883 5883 5883 5883 5883 5883 5883 5883 5884 5884 5885 5885 5885 5886 5887 5887 5888 5888 5889 5889 5890 5890 5891 5891
5914 5914 5912 5910 5909 5908 5906 5904 5903 5902 5900 5898 5897 5895 5893 5892 5891 5890 5889 5888 5887 5886 5886 5885 5885 5885 5885 5884 5884 5885 5885 5885 5885 5886 5886 5886 5887 5887 5888 5888 5889 5889 5890 5890 5891 5891 5892 5892 5893
5916 5915 5914 5913 5912 5910 5909 5908 5907 5905 5903 5901 5899 5897 5896 5894 5893 5892 5891 5890 5889 5889 5888 5887 5887 5887 5887 5886 5886 5886 5887 5887 5887 5887 5888 5888 5888 5889 5889 5890 5890 5891 5891 5892 5892 5893 5893 5894 5894
5918 5917 5916 5915 5914 5913 5912 5911 5910 5908 5906 5904 5902 5900 5898 5897 5896 5894 5893 5892 5891 5891 5890 5890 5889 5889 5889 5888 5888 5888 5888 5888 5888 5889 5889 5890 5890 5890 5891 5892 5892 5892 5892 5893 5894 5894 5895 5895 5895
5920 5919 5918 5917 5916 5915 5914 5913 5912 5910 5909 5907 5905 5903 5901 5900 5898 5897 5895 5894 5893 5893 5892 5892 5892 5891 5891 5890 5890 5890 5890 5890 5890 5890 5890 5891 5891 5892 5893 5893 5893 5894 5894 5894 5895 5895 5896 5896 5896
5921 5921 5920 5919 5918 5917 5916 5916 5915 5913 5911 5910 5908 5905 5904 5902 5901 5899 5898 5896 5895 5895 5894 5894 5894 5893 5893 5892 5892 5892 5892 5892 5892 5892 5892 5892 5893 5893 5894 5894 5895 5895 5895 5895 5896 5896 5896 5896 5896
5922 5922 5922 5921 5920 5919 5918 5918 5917 5916 5914 5913 5911 5909 5906 5905 5903 5902 5900 5899 5898 5897 5897 5896 5895 5895 5895 5894 5894 5894 5894 5894 5894 5894 5894 5894 5894 5894 5895 5895 5895 5895 5896 5896 5896 5896 5896 5897 5897
5923 5924 5923 5922 5922 5921 5921 5920 5919 5918 5916 5915 5914 5912 5909 5907 5906 5904 5902 5901 5900 5900 5899 5898 5897 5897 5897 5896 5896 5896 5896 5895 5895 5895 5895 5895 5895 5895 5896 5896 5896 5896 5896 5896 5896 5896 5897 5897 5897
5924 5924 5924 5924 5923 5923 5924 5922 5921 5920 5919 5918 5916 5914 5912 5910 5908 5906 5905 5904 5903 5902 5901 5900 5899 5898 5898 5898 5898 5897 5897 5897 5897 5896 5896 5896 5897 5897 5897 5897 5897 5896 5897 5896 5896 5896 5897 5897 5897
5923 5924 5924 5925 5924 5924 5924 5923 5922 5922 5921 5920 5918 5916 5914 5912 5910 5908 5907 5906 5905 5904 5903 5902 5901 5900 5900 5900 5899 5898 5898 5898 5897 5897 5897 5897 5898 5898 5897 5897 5897 5897 5897 5897 5896 5896 5896 5896 5896
5923 5924 5924 5925 5925 5925 5925 5924 5924 5923 5922 5921 5920 5918 5916 5914 5912 5910 5909 5908 5906 5905 5904 5903 5902 5902 5901 5900 5900 5899 5899 5899 5898 5898 5898 5898 5898 5898 5898 5898 5898 5897 5897 5897 5896 5896 5896 5896 5895
5923 5924 5925 5926 5926 5926 5926 5926 5925 5924 5924 5923 5921 5919 5918 5916 5914 5912 5911 5909 5908 5906 5905 5904 5903 5903 5902 5901 5901 5900 5900 5899 5899 5899 5898 5898 5898 5898 5898 5898 5898 5897 5897 5896 5895 5895 5895 5894 5894
5922 5923 5924 5925 5925 5926 5926 5926 5926 5925 5925 5924 5922 5920 5919 5917 5916 5914 5912 5910 5909 5907 5906 5905 5904 5903 5902 5902 5901 5900 5900 5899 5899 5899 5898 5898 5898 5898 5898 5897 5897 5897 5896 5895 5895 5894 5893 5893 5892
5920 5922 5924 5925 5925 5925 5926 5927 5927 5926 5925 5924 5923 5921 5920 5918 5917 5915 5913 5911 5910 5908 5907 5906 5905 5904 5903 5902 5902 5901 5900 5899 5899 5899 5898 5898 5898 5897 5897 5897 5896 5895 5895 5894 5893 5893 5892 5891 5890
5919 5921 5922 5923 5924 5924 5926 5926 5927 5926 5926 5925 5924 5922 5921 5919 5917 5916 5914 5912 5910 5909 5907 5906 5905 5904 5903 5902 5902 5901 5900 5899 5899 5898 5898 5897 5897 5897 5896 5895 5895 5894 5893 5893 5892 5891 5890 5889 5888
5917 5919 5921 5922 5923 5924 5925 5925 5927 5926 5926 5925 5924 5923 5921 5919 5918 5916 5914 5913 5911 5909 5907 5906 5905 5904 5903 5903 5902 5901 5900 5899 5898 5898 5897 5897 5896 5895 5895 5894 5893 5892 5892 5891 5890 5889 5888 5887 5886
5915 5917 5918 5920 5921 5923 5924 5924 5925 5925 5925 5925 5924 5923 5922 5920 5918 5916 5915 5913 5911 5909 5907 5906 5905 5904 5903 5903 5902 5901 5900 5899 5898 5897 5896 5896 5895 5894 5894 5893 5892 5891 5890 5889 5888 5887 5886 5885 5884
5912 5915 5916 5917 5919 5921 5922 5923 5925 5924 5924 5925 5924 5923 5921 5920 5918 5916 5915 5913 5911 5909 5907 5906 5905 5904 5904 5903 5902 5901 5900 5899 5898 5897 5896 5895 5894 5893 5892 5891 5890 5889 5888 5887 5886 5885 5884 5883 5882
5909 5912 5915 5916 5917 5919 5920 5921 5923 5923 5924 5923 5923 5922 5921 5919 5918 5916 5915 5913 5911 5908 5907 5906 5906 5904 5904 5903 5902 5901 5900 5898 5897 5896 5895 5894 5893 5892 5891 5890 5889 5887 5886 5885 5884 5883 5882 5881 5880
5905 5908 5911 5913 5915 5916 5918 5920 5921 5922 5922 5922 5922 5921 5920 5919 5917 5916 5914 5913 5911 5909 5908 5907 5906 5905 5904 5903 5902 5900 5899 5898 5897 5896 5895 5894 5892 5891 5890 5889 5887 5886 5885 5884 5882 5881 5880 5879 5878
5902 5904 5907 5909 5911 5913 5915 5917 5920 5920 5921 5921 5921 5920 5919 5918 5916 5915 5914 5912 5911 5909 5908 5907 5906 5905 5904 5902 5901 5900 5898 5897 5896 5895 5894 5893 5891 5890 5889 5887 5886 5885 5883 5882 5881 5880 5878 5877 5876
5898 5901 5903 5906 5908 5910 5912 5916 5917 5918 5919 5919 5919 5919 5918 5916 5915 5914 5913 5912 5910 5909 5908 5907 5906 5905 5904 5902 5901 5899 5898 5896 5895 5894 5893 5891 5890 5889 5887 5886 5885 5883 5882 5881 5879 5878 5876 5875 5874
5892 5896 5899 5902 5904 5907 5909 5915 5914 5915 5917 5917 5918 5917 5916 5915 5914 5912 5912 5911 5910 5909 5908 5907 5906 5904 5903 5902 5900 5898 5897 5896 5894 5893 5891 5890 5889 5887 5886 5884 5883 5882 5880 5879 5877 5876 5874 5873 5871